Location: Acheville
(50.3840°N, 2.8827°E)
Time: 15:51:12
(UTC+00:00)

SL-8 R/B - Pass Details

Date: 24 October 2021
Orbit: 656 x 667 km, 48.4° (Epoch: 27 November)

Event Time Altitude Azimuth Distance (km) Brightness Sun altitude
Rises 17:45:38 0° 251° (WSW) 2,980 8.9 -11.3°
Reaches altitude 10° 17:47:59 10° 249° (WSW) 2,070 7.6 -11.7°
Maximum altitude 17:52:42 63° 169° (SSE) 736 3.9 -12.4°
Enters shadow 17:56:02 19° 92° (E) 1,554 5.0 -12.9°
